ONEWEB-0598 (55154 NORAD) Tracking and Keplerian Element Data

This shows tracking and keplerian element data for the satellite.

Feedback or suggestion? Click here.




ElementValue
Catalog55154
NameONEWEB-0598
Epoch Orbit130
Epoch Day13.91667824
Epoch Year2023
RAAN284.1423
Inclination86.5097
Eccentricity0.0009146
Argument of Perigee199.0613
Mean Anonmoly63.5974
Mean Motion14.90736869
Decay Rate-0.00048504
L11 55154U 23004Q 23013.91667824 -.00048504 00000+0 -49806-2 0 9992
L22 55154 86.5097 284.1423 0009146 199.0613 63.5974 14.90736869 1301



Live tracking and technical data element details for ONEWEB-0598 (NORAD 55154). ONEWEB-0598 can be tracked NOW for your location showing map with azimuth and elevation plus other details from your city location.







IsCatalogInMostPopularTable: catalog: 55154, numindb: 3
Update: records affected: 1



GetName: 55154 ONEWEB-0598

Hit Count: updated at: Tue, 07 Feb 2023 14:23:44 GMT